ZHUHAI-1 01

Last updated on Thu Jun 22 2017 00:17:34 GMT+0000 (Coordinated Universal Time)

1 42759U 17034B 17172.48538532 -.00000219 00000-0 00000-0 0 9991 2 42759 43.0178 262.8853 0007993 2.6838 113.4679 15.08895357 957

Satellite not in orbit

ZHUHAI-1 01